Weather in Kitab

Uzbekistan     39°07′06″N   66°52′29″E
temp.,
°C
wind,
m/s
gust,
m/s
humid.,
%
clouds,
%
prec.,
mm/h
press.,
hPa
HPBL,
m
4 july, mon
mon423:00+30e22190 0.0 99617
02:00+29sw12210 0.0 99612
05:00+27ssw23240 0.0 99946
08:00+30wsw67220 0.0 1003660
11:00+34wsw55180 0.0 10041489
14:00+37wnw76150 0.0 10032453
17:00+35wnw75170 0.0 10042445
20:00+29nw611164 0.0 1005379
5 july, tue
tue523:00+25w25240 0.0 1006124
02:00+22ssw34270 0.0 100866
05:00+20ssw23260 0.0 100933
08:00+24sw11210 0.0 1010478
11:00+30w33160 0.0 10091519
14:00+34w54100 0.0 10072414
17:00+33wnw53110 0.0 10062159
20:00+27wnw34170 0.0 100643
6 july, wed
wed623:00+23s22230 0.0 100714
02:00+22ese11260 0.0 100611
05:00+21e11280 0.0 100711
08:00+26w11220 0.0 1008360
11:00+32w45150 0.0 10071721
14:00+35w66120 0.0 10062675
17:00+34wnw65110 0.0 10062756
20:00+28wnw47140 0.0 1008105
7 july, thu
thu723:00+24sse22190 0.0 101015
02:00+22sw12210 0.0 101014
05:00+20s22260 0.0 101215
08:00+25wsw22210 0.0 1013344
11:00+31wnw44160 0.0 10121856
14:00+33wnw64120 0.0 10102324
17:00+33nw53110 0.0 10082232
20:00+26wnw46160 0.0 100983
8 july, fri
fri823:00+22s22220 0.0 100919
02:00+21e11260 0.0 100811
05:00+20e11310 0.0 100811
08:00+25nnw11250 0.0 1008331
11:00+32w33160 0.0 10071500
14:00+35w55110 0.0 10052405
17:00+36w5490 0.0 10033061
20:00+28w45150 0.0 100461